����,���ϕ���(m/s),���ϕ���,�ő�u�ԕ���(m/s),�ő啗��������,�C��(��),���x(%),10���Ԉړ��ώZ�J��(mm),1���Ԉړ��ώZ�J��(mm),���J��(mm),�݌v�J��(mm)
2022-08-01T00:00:00+09:00,1.6,��,3,��,27.2,78.9,0,0,0,0
2022-08-01T00:01:00+09:00,1.5,��,3,��,27.3,79,0,0,0,0
2022-08-01T00:02:00+09:00,1.5,��,3,��,27.2,78.8,0,0,0,0
2022-08-01T00:03:00+09:00,1.5,��,3,��,27.2,79,0,0,0,0
2022-08-01T00:04:00+09:00,1.5,��,3,��,27.2,79.1,0,0,0,0
2022-08-01T00:05:00+09:00,1.5,��,3,��,27.2,79.2,0,0,0,0
2022-08-01T00:06:00+09:00,1.6,��,3.1,��쐼,27.2,79.3,0,0,0,0
2022-08-01T00:07:00+09:00,1.7,��,3.1,��쐼,27.2,79.3,0,0,0,0
2022-08-01T00:08:00+09:00,1.6,��,3.1,��쐼,27.2,79.2,0,0,0,0
2022-08-01T00:09:00+09:00,1.7,��,3.2,��,27.2,79.2,0,0,0,0
2022-08-01T00:10:00+09:00,1.8,��,3.8,��쓌,27.2,79.1,0,0,0,0
2022-08-01T00:11:00+09:00,1.9,��,3.8,��쓌,27.3,79.2,0,0,0,0
2022-08-01T00:12:00+09:00,2,��,3.8,��쓌,27.2,79.2,0,0,0,0
2022-08-01T00:13:00+09:00,2,��,3.8,��쓌,27.2,79.2,0,0,0,0
2022-08-01T00:14:00+09:00,2,��,3.8,��쓌,27.3,79,0,0,0,0
2022-08-01T00:15:00+09:00,2,��쓌,3.8,��쓌,27.3,79,0,0,0,0
2022-08-01T00:16:00+09:00,2,��쓌,3.8,��쓌,27.2,79.1,0,0,0,0
2022-08-01T00:17:00+09:00,2,��쓌,3.8,��쓌,27.2,79.3,0,0,0,0
2022-08-01T00:18:00+09:00,2.1,��쓌,4.4,��쓌,27.3,79.2,0,0,0,0
2022-08-01T00:19:00+09:00,2,��쓌,4.4,��쓌,27.3,79,0,0,0,0
2022-08-01T00:20:00+09:00,1.9,��쓌,4.4,��쓌,27.3,78.8,0,0,0,0
2022-08-01T00:21:00+09:00,1.9,��쓌,4.4,��쓌,27.3,78.8,0,0,0,0
2022-08-01T00:22:00+09:00,1.8,��쓌,4.4,��쓌,27.3,78.9,0,0,0,0
2022-08-01T00:23:00+09:00,1.7,��쓌,4.4,��쓌,27.3,78.8,0,0,0,0
2022-08-01T00:24:00+09:00,1.6,��쓌,4.4,��쓌,27.2,79,0,0,0,0
2022-08-01T00:25:00+09:00,1.6,��쓌,4.4,��쓌,27.2,79.2,0,0,0,0
2022-08-01T00:26:00+09:00,1.6,��쓌,4.4,��쓌,27.3,79.3,0,0,0,0
2022-08-01T00:27:00+09:00,1.5,��쓌,4.4,��쓌,27.2,79.1,0,0,0,0
2022-08-01T00:28:00+09:00,1.4,��쓌,2.6,���쓌,27.3,79.3,0,0,0,0
2022-08-01T00:29:00+09:00,1.4,��쓌,2.6,���쓌,27.3,79.4,0,0,0,0
2022-08-01T00:30:00+09:00,1.4,��쓌,2.6,���쓌,27.3,79.4,0,0,0,0
2022-08-01T00:31:00+09:00,1.5,��쓌,3,�쓌,27.3,79.5,0,0,0,0
2022-08-01T00:32:00+09:00,1.5,��쓌,3,�쓌,27.3,79.5,0,0,0,0
2022-08-01T00:33:00+09:00,1.6,��쓌,3,�쓌,27.2,79.6,0,0,0,0
2022-08-01T00:34:00+09:00,1.6,�쓌,3,�쓌,27.2,79.9,0,0,0,0
2022-08-01T00:35:00+09:00,1.8,�쓌,4,��쓌,27.2,80.1,0,0,0,0
2022-08-01T00:36:00+09:00,1.9,�쓌,4,��쓌,27.2,80.1,0,0,0,0
2022-08-01T00:37:00+09:00,2,�쓌,4,��쓌,27.2,80.1,0,0,0,0
2022-08-01T00:38:00+09:00,2.1,�쓌,4,��쓌,27.2,80.2,0,0,0,0
2022-08-01T00:39:00+09:00,2.2,�쓌,4,��쓌,27.1,80.3,0,0,0,0
2022-08-01T00:40:00+09:00,2.3,�쓌,4.1,�쓌,27.2,80.5,0,0,0,0
2022-08-01T00:41:00+09:00,2.4,�쓌,4.1,�쓌,27.1,80.7,0,0,0,0
2022-08-01T00:42:00+09:00,2.5,�쓌,4.1,�쓌,27.1,80.9,0,0,0,0
2022-08-01T00:43:00+09:00,2.5,�쓌,4.1,�쓌,27.1,81,0,0,0,0
2022-08-01T00:44:00+09:00,2.5,�쓌,4.1,�쓌,27.1,81.1,0,0,0,0
2022-08-01T00:45:00+09:00,2.4,��쓌,4.1,�쓌,27.1,81.2,0,0,0,0
2022-08-01T00:46:00+09:00,2.2,��쓌,4.1,�쓌,27.1,81.2,0,0,0,0
2022-08-01T00:47:00+09:00,2.2,��쓌,4.1,�쓌,27.1,81.1,0,0,0,0
2022-08-01T00:48:00+09:00,2.2,��쓌,4.1,�쓌,27,81.4,0,0,0,0
2022-08-01T00:49:00+09:00,2.2,��쓌,4.1,�쓌,27,81.7,0,0,0,0
2022-08-01T00:50:00+09:00,2.1,��쓌,3.8,�쓌,27,81.7,0,0,0,0
2022-08-01T00:51:00+09:00,1.9,��쓌,3.8,�쓌,27,82,0,0,0,0
2022-08-01T00:52:00+09:00,1.8,��쓌,3.3,��쓌,27,82.1,0,0,0,0
2022-08-01T00:53:00+09:00,1.7,��쓌,3.3,��쓌,27,82.1,0,0,0,0
2022-08-01T00:54:00+09:00,1.8,��쓌,3.3,��쓌,27,82.1,0,0,0,0
2022-08-01T00:55:00+09:00,1.9,��쓌,3.7,�쓌,27,82.1,0,0,0,0
2022-08-01T00:56:00+09:00,2,��쓌,3.7,�쓌,27,82.2,0,0,0,0
2022-08-01T00:57:00+09:00,2,��쓌,3.7,�쓌,27,82.3,0,0,0,0
2022-08-01T00:58:00+09:00,2,��쓌,3.7,�쓌,27,82.4,0,0,0,0
2022-08-01T00:59:00+09:00,1.9,��쓌,3.7,�쓌,27,82.5,0,0,0,0
2022-08-01T01:00:00+09:00,2.1,��쓌,4.4,�쓌,26.9,82.7,0,0,0,0
2022-08-01T01:01:00+09:00,2.2,��쓌,4.4,�쓌,26.9,82.9,0,0,0,0
2022-08-01T01:02:00+09:00,2.3,��쓌,4.4,�쓌,26.9,83,0,0,0,0
2022-08-01T01:03:00+09:00,2.4,��쓌,4.4,�쓌,26.9,83.2,0,0,0,0
2022-08-01T01:04:00+09:00,2.3,��쓌,4.4,�쓌,26.8,83.3,0,0,0,0
2022-08-01T01:05:00+09:00,2.3,��쓌,4.4,�쓌,26.8,83.4,0,0,0,0
2022-08-01T01:06:00+09:00,2.2,��쓌,4.4,�쓌,26.9,83.5,0,0,0,0
2022-08-01T01:07:00+09:00,2.2,��쓌,4.4,�쓌,26.9,83.5,0,0,0,0
2022-08-01T01:08:00+09:00,2.3,��쓌,4.4,�쓌,26.8,83.5,0,0,0,0
2022-08-01T01:09:00+09:00,2.3,��쓌,4.4,�쓌,26.8,83.7,0,0,0,0
2022-08-01T01:10:00+09:00,2.2,��쓌,4.1,�쓌,26.8,83.7,0,0,0,0
2022-08-01T01:11:00+09:00,2.1,��쓌,3.8,��쓌,26.8,83.7,0,0,0,0
2022-08-01T01:12:00+09:00,2.1,��쓌,4,�쓌,26.8,83.8,0,0,0,0
2022-08-01T01:13:00+09:00,2.1,��쓌,4,�쓌,26.8,83.8,0,0,0,0
2022-08-01T01:14:00+09:00,2.1,��쓌,4,�쓌,26.8,83.8,0,0,0,0
2022-08-01T01:15:00+09:00,2.1,��쓌,4,�쓌,26.8,83.9,0,0,0,0
2022-08-01T01:16:00+09:00,2.1,��쓌,4,�쓌,26.8,84,0,0,0,0
2022-08-01T01:17:00+09:00,2.1,��쓌,4,�쓌,26.8,84.1,0,0,0,0
2022-08-01T01:18:00+09:00,2.1,��쓌,4,�쓌,26.8,84.1,0,0,0,0
2022-08-01T01:19:00+09:00,2.1,��쓌,4,�쓌,26.8,84.1,0,0,0,0
2022-08-01T01:20:00+09:00,2.1,��쓌,4,�쓌,26.8,84.2,0,0,0,0
2022-08-01T01:21:00+09:00,2.1,�쓌,4,�쓌,26.8,84.1,0,0,0,0
2022-08-01T01:22:00+09:00,2,�쓌,3.8,��쓌,26.8,84.1,0,0,0,0
2022-08-01T01:23:00+09:00,2,�쓌,3.8,�쓌,26.8,84.2,0,0,0,0
2022-08-01T01:24:00+09:00,2,��쓌,3.8,�쓌,26.8,84.1,0,0,0,0
2022-08-01T01:25:00+09:00,2,��쓌,3.8,�쓌,26.8,84.3,0,0,0,0
2022-08-01T01:26:00+09:00,1.9,�쓌,3.8,�쓌,26.8,84.2,0,0,0,0
2022-08-01T01:27:00+09:00,1.9,�쓌,3.8,�쓌,26.8,84.3,0,0,0,0
2022-08-01T01:28:00+09:00,1.9,�쓌,4.1,���쓌,26.8,84.4,0,0,0,0
2022-08-01T01:29:00+09:00,2,�쓌,4.1,���쓌,26.7,84.6,0,0,0,0
2022-08-01T01:30:00+09:00,2.1,�쓌,4.1,���쓌,26.7,84.7,0,0,0,0
2022-08-01T01:31:00+09:00,2.2,�쓌,4.7,��쓌,26.7,84.8,0,0,0,0
2022-08-01T01:32:00+09:00,2.3,�쓌,4.7,��쓌,26.7,84.8,0,0,0,0
2022-08-01T01:33:00+09:00,2.3,�쓌,4.7,��쓌,26.7,84.7,0,0,0,0
2022-08-01T01:34:00+09:00,2.5,�쓌,5.6,�쓌,26.8,84.8,0,0,0,0
2022-08-01T01:35:00+09:00,2.6,�쓌,5.6,�쓌,26.8,84.8,0,0,0,0
2022-08-01T01:36:00+09:00,2.7,�쓌,5.6,�쓌,26.7,84.9,0,0,0,0
2022-08-01T01:37:00+09:00,2.8,�쓌,5.6,�쓌,26.7,85.1,0,0,0,0
2022-08-01T01:38:00+09:00,2.8,�쓌,5.6,�쓌,26.7,85.3,0,0,0,0
2022-08-01T01:39:00+09:00,3,�쓌,5.6,�쓌,26.7,85.3,0,0,0,0
2022-08-01T01:40:00+09:00,3,�쓌,5.6,�쓌,26.7,85.3,0,0,0,0
2022-08-01T01:41:00+09:00,3,�쓌,5.6,�쓌,26.7,85.5,0,0,0,0
2022-08-01T01:42:00+09:00,3.1,�쓌,5.6,�쓌,26.7,85.7,0,0,0,0
2022-08-01T01:43:00+09:00,3.1,�쓌,5.6,�쓌,26.7,85.7,0,0,0,0
2022-08-01T01:44:00+09:00,3,�쓌,5.1,�쓌,26.7,85.8,0,0,0,0
2022-08-01T01:45:00+09:00,3,�쓌,5.1,�쓌,26.7,85.9,0,0,0,0
2022-08-01T01:46:00+09:00,3.1,�쓌,5.1,�쓌,26.7,86,0,0,0,0
2022-08-01T01:47:00+09:00,3.2,�쓌,5.1,�쓌,26.7,86.1,0,0,0,0
2022-08-01T01:48:00+09:00,3.1,�쓌,5.1,�쓌,26.6,86.2,0,0,0,0
2022-08-01T01:49:00+09:00,3,�쓌,5.1,�쓌,26.6,86.5,0,0,0,0
2022-08-01T01:50:00+09:00,3,�쓌,5,�쓌,26.5,86.7,0,0,0,0
2022-08-01T01:51:00+09:00,3,���쓌,5,�쓌,26.5,86.9,0,0,0,0
2022-08-01T01:52:00+09:00,2.9,���쓌,5,�쓌,26.6,87.1,0,0,0,0
2022-08-01T01:53:00+09:00,2.9,���쓌,5,�쓌,26.6,87,0,0,0,0
2022-08-01T01:54:00+09:00,2.9,���쓌,5,�쓌,26.5,86.9,0,0,0,0
2022-08-01T01:55:00+09:00,2.8,���쓌,5,�쓌,26.5,86.9,0,0,0,0
2022-08-01T01:56:00+09:00,2.8,���쓌,5,�쓌,26.6,86.8,0,0,0,0
2022-08-01T01:57:00+09:00,2.8,���쓌,5,��,26.6,86.5,0,0,0,0
2022-08-01T01:58:00+09:00,2.7,���쓌,5,��,26.6,86.3,0,0,0,0
2022-08-01T01:59:00+09:00,2.6,���쓌,5,��,26.6,86.4,0,0,0,0
2022-08-01T02:00:00+09:00,2.5,���쓌,5,��,26.6,86.3,0,0,0,0
2022-08-01T02:01:00+09:00,2.5,���쓌,4.8,���쓌,26.6,86.3,0,0,0,0
2022-08-01T02:02:00+09:00,2.5,���쓌,4.8,���쓌,26.7,86.2,0,0,0,0
2022-08-01T02:03:00+09:00,2.3,���쓌,4.6,���쓌,26.6,86.1,0,0,0,0
2022-08-01T02:04:00+09:00,2.2,���쓌,4.6,���쓌,26.6,86.1,0,0,0,0
2022-08-01T02:05:00+09:00,2.3,���쓌,4.6,���쓌,26.6,86.2,0,0,0,0
2022-08-01T02:06:00+09:00,2.3,���쓌,4.6,���쓌,26.5,86.3,0,0,0,0
2022-08-01T02:07:00+09:00,2.3,���쓌,5.1,�쓌,26.6,86.5,0,0,0,0
2022-08-01T02:08:00+09:00,2.3,���쓌,5.1,�쓌,26.6,86.4,0,0,0,0
2022-08-01T02:09:00+09:00,2.4,���쓌,5.1,�쓌,26.5,86.3,0,0,0,0
2022-08-01T02:10:00+09:00,2.5,�쓌,5.1,�쓌,26.5,86.4,0,0,0,0
2022-08-01T02:11:00+09:00,2.5,�쓌,5.1,�쓌,26.5,86.4,0,0,0,0
2022-08-01T02:12:00+09:00,2.5,�쓌,5.1,�쓌,26.5,86.5,0,0,0,0
2022-08-01T02:13:00+09:00,2.6,�쓌,5.1,�쓌,26.4,86.5,0,0,0,0
2022-08-01T02:14:00+09:00,2.8,�쓌,5.1,�쓌,26.5,86.7,0,0,0,0
2022-08-01T02:15:00+09:00,2.8,�쓌,5.1,�쓌,26.6,86.5,0,0,0,0
2022-08-01T02:16:00+09:00,2.8,�쓌,5.1,�쓌,26.5,86.3,0,0,0,0
2022-08-01T02:17:00+09:00,2.8,�쓌,5.1,���쓌,26.5,86.3,0,0,0,0
2022-08-01T02:18:00+09:00,2.7,�쓌,5.1,���쓌,26.5,86.3,0,0,0,0
2022-08-01T02:19:00+09:00,2.7,�쓌,5.1,���쓌,26.4,86.6,0,0,0,0
2022-08-01T02:20:00+09:00,2.7,�쓌,5.1,���쓌,26.4,86.9,0,0,0,0
2022-08-01T02:21:00+09:00,2.6,�쓌,5.1,���쓌,26.4,87.2,0,0,0,0
2022-08-01T02:22:00+09:00,2.5,�쓌,5.1,���쓌,26.4,87.3,0,0,0,0
2022-08-01T02:23:00+09:00,2.4,�쓌,5.1,���쓌,26.4,87.4,0,0,0,0
2022-08-01T02:24:00+09:00,2.3,�쓌,4.9,���쓌,26.4,87.4,0,0,0,0
2022-08-01T02:25:00+09:00,2.4,�쓌,4.9,���쓌,26.5,87.3,0,0,0,0
2022-08-01T02:26:00+09:00,2.5,�쓌,5.6,���쓌,26.5,87.2,0,0,0,0
2022-08-01T02:27:00+09:00,2.5,�쓌,5.6,���쓌,26.6,87,0,0,0,0
2022-08-01T02:28:00+09:00,2.6,���쓌,5.9,�쓌,26.6,86.8,0,0,0,0
2022-08-01T02:29:00+09:00,2.6,���쓌,5.9,�쓌,26.6,86.6,0,0,0,0
2022-08-01T02:30:00+09:00,2.6,���쓌,5.9,�쓌,26.5,86.5,0,0,0,0
2022-08-01T02:31:00+09:00,2.7,���쓌,5.9,�쓌,26.5,86.6,0,0,0,0
2022-08-01T02:32:00+09:00,2.9,���쓌,5.9,�쓌,26.5,87,0,0,0,0
2022-08-01T02:33:00+09:00,2.9,���쓌,5.9,�쓌,26.5,86.9,0,0,0,0
2022-08-01T02:34:00+09:00,2.9,���쓌,5.9,�쓌,26.5,86.8,0,0,0,0
2022-08-01T02:35:00+09:00,2.9,���쓌,5.9,�쓌,26.5,86.8,0,0,0,0
2022-08-01T02:36:00+09:00,2.9,���쓌,5.9,�쓌,26.5,86.8,0,0,0,0
2022-08-01T02:37:00+09:00,2.9,���쓌,5.9,�쓌,26.5,87,0,0,0,0
2022-08-01T02:38:00+09:00,2.8,���쓌,5.9,�쓌,26.6,86.9,0,0,0,0
2022-08-01T02:39:00+09:00,2.9,���쓌,5.9,�쓌,26.6,86.6,0,0,0,0
2022-08-01T02:40:00+09:00,3,���쓌,5.9,�쓌,26.6,86.6,0,0,0,0
2022-08-01T02:41:00+09:00,3,���쓌,5.9,�쓌,26.6,86.6,0,0,0,0
2022-08-01T02:42:00+09:00,2.9,���쓌,5.7,���쓌,26.6,86.3,0,0,0,0
2022-08-01T02:43:00+09:00,2.9,���쓌,5.7,���쓌,26.6,86.1,0,0,0,0
2022-08-01T02:44:00+09:00,2.9,���쓌,5.7,���쓌,26.6,86.3,0,0,0,0
2022-08-01T02:45:00+09:00,2.9,���쓌,5.3,���쓌,26.6,86.6,0,0,0,0
2022-08-01T02:46:00+09:00,2.8,���쓌,5.3,���쓌,26.6,86.7,0,0,0,0
2022-08-01T02:47:00+09:00,2.9,���쓌,6.2,���쓌,26.6,86.7,0,0,0,0
2022-08-01T02:48:00+09:00,3,���쓌,6.2,���쓌,26.6,86.6,0,0,0,0
2022-08-01T02:49:00+09:00,3,���쓌,6.2,���쓌,26.6,86.4,0,0,0,0
2022-08-01T02:50:00+09:00,3,���쓌,6.2,���쓌,26.6,86.3,0,0,0,0
2022-08-01T02:51:00+09:00,3.1,���쓌,6.2,���쓌,26.6,86.4,0,0,0,0
2022-08-01T02:52:00+09:00,3.1,���쓌,6.2,���쓌,26.5,86.6,0,0,0,0
2022-08-01T02:53:00+09:00,3,���쓌,6.2,���쓌,26.5,86.8,0,0,0,0
2022-08-01T02:54:00+09:00,3.1,���쓌,6.2,���쓌,26.5,87,0,0,0,0
2022-08-01T02:55:00+09:00,3.1,�쓌,6.2,���쓌,26.4,87,0,0,0,0
2022-08-01T02:56:00+09:00,3.1,�쓌,6.2,���쓌,26.4,87,0,0,0,0
2022-08-01T02:57:00+09:00,3,�쓌,5.1,���쓌,26.4,87.1,0,0,0,0
2022-08-01T02:58:00+09:00,3,�쓌,5,�쓌,26.4,87.3,0,0,0,0
2022-08-01T02:59:00+09:00,3,�쓌,5,�쓌,26.4,87.4,0,0,0,0
2022-08-01T03:00:00+09:00,3,�쓌,5.7,�쓌,26.4,87.3,0,0,0,0
2022-08-01T03:01:00+09:00,3.2,�쓌,5.7,�쓌,26.5,87.2,0,0,0,0
2022-08-01T03:02:00+09:00,3.2,�쓌,5.7,�쓌,26.5,87,0,0,0,0
2022-08-01T03:03:00+09:00,3.3,�쓌,5.7,�쓌,26.5,87,0,0,0,0
2022-08-01T03:04:00+09:00,3.2,�쓌,5.7,�쓌,26.5,87,0,0,0,0
2022-08-01T03:05:00+09:00,3.2,�쓌,5.7,�쓌,26.5,87.1,0,0,0,0
2022-08-01T03:06:00+09:00,3.2,�쓌,5.7,�쓌,26.4,87.1,0,0,0,0
2022-08-01T03:07:00+09:00,3.2,�쓌,5.7,�쓌,26.4,87.2,0,0,0,0
2022-08-01T03:08:00+09:00,3.2,�쓌,5.7,�쓌,26.4,87.3,0,0,0,0
2022-08-01T03:09:00+09:00,3.2,�쓌,5.7,�쓌,26.4,87.6,0,0,0,0
2022-08-01T03:10:00+09:00,3.1,�쓌,5.4,�쓌,26.4,87.8,0,0,0,0
2022-08-01T03:11:00+09:00,2.9,�쓌,4.7,�쓌,26.4,87.8,0,0,0,0
2022-08-01T03:12:00+09:00,2.7,�쓌,4.6,�쓌,26.4,87.8,0,0,0,0
2022-08-01T03:13:00+09:00,2.7,�쓌,4.6,�쓌,26.4,87.7,0,0,0,0
2022-08-01T03:14:00+09:00,2.7,�쓌,4.6,�쓌,26.4,87.7,0,0,0,0
2022-08-01T03:15:00+09:00,2.7,�쓌,4.1,�쓌,26.3,87.7,0,0,0,0
2022-08-01T03:16:00+09:00,2.6,�쓌,4.1,�쓌,26.3,87.8,0,0,0,0
2022-08-01T03:17:00+09:00,2.7,�쓌,4.1,�쓌,26.3,88,0,0,0,0
2022-08-01T03:18:00+09:00,2.7,�쓌,4.1,�쓌,26.3,88.1,0,0,0,0
2022-08-01T03:19:00+09:00,2.7,�쓌,5.3,��쓌,26.3,88.3,0,0,0,0
2022-08-01T03:20:00+09:00,2.8,�쓌,5.3,��쓌,26.3,88.4,0,0,0,0
2022-08-01T03:21:00+09:00,2.9,�쓌,5.3,��쓌,26.4,88.2,0,0,0,0
2022-08-01T03:22:00+09:00,2.9,�쓌,5.3,��쓌,26.4,88,0,0,0,0
2022-08-01T03:23:00+09:00,2.8,�쓌,5.3,��쓌,26.4,87.8,0,0,0,0
2022-08-01T03:24:00+09:00,2.7,�쓌,5.3,��쓌,26.3,87.7,0,0,0,0
2022-08-01T03:25:00+09:00,2.6,�쓌,5.3,��쓌,26.3,87.9,0,0,0,0
2022-08-01T03:26:00+09:00,2.5,�쓌,5.3,��쓌,26.2,88.1,0,0,0,0
2022-08-01T03:27:00+09:00,2.5,�쓌,5.3,��쓌,26.3,88.4,0,0,0,0
2022-08-01T03:28:00+09:00,2.4,�쓌,5.3,��쓌,26.3,88.7,0,0,0,0
2022-08-01T03:29:00+09:00,2.3,�쓌,5.1,��쓌,26.3,88.6,0,0,0,0
2022-08-01T03:30:00+09:00,2.3,�쓌,4.9,���쓌,26.3,88.6,0,0,0,0
2022-08-01T03:31:00+09:00,2.2,�쓌,4.9,���쓌,26.3,88.5,0,0,0,0
2022-08-01T03:32:00+09:00,2.2,�쓌,4.9,���쓌,26.3,88.5,0,0,0,0
2022-08-01T03:33:00+09:00,2.3,�쓌,4.9,���쓌,26.3,88.4,0,0,0,0
2022-08-01T03:34:00+09:00,2.4,�쓌,4.9,���쓌,26.3,88.5,0,0,0,0
2022-08-01T03:35:00+09:00,2.4,�쓌,4.9,���쓌,26.2,88.5,0,0,0,0
2022-08-01T03:36:00+09:00,2.4,�쓌,4.9,���쓌,26.3,88.4,0,0,0,0
2022-08-01T03:37:00+09:00,2.4,�쓌,4.9,���쓌,26.3,88.3,0,0,0,0
2022-08-01T03:38:00+09:00,2.4,�쓌,4.9,���쓌,26.2,88.4,0,0,0,0
2022-08-01T03:39:00+09:00,2.3,�쓌,4.9,���쓌,26.2,88.4,0,0,0,0
2022-08-01T03:40:00+09:00,2.2,�쓌,4.3,���쓌,26.2,88.5,0,0,0,0
2022-08-01T03:41:00+09:00,2.2,�쓌,4,��쓌,26.2,88.7,0,0,0,0
2022-08-01T03:42:00+09:00,2.2,�쓌,4,��쓌,26.1,88.9,0,0,0,0
2022-08-01T03:43:00+09:00,2.2,�쓌,3.9,�쓌,26.1,89.1,0,0,0,0
2022-08-01T03:44:00+09:00,2.2,�쓌,3.9,�쓌,26.1,89.2,0,0,0,0
2022-08-01T03:45:00+09:00,2.2,�쓌,3.9,�쓌,26.1,89.2,0,0,0,0
2022-08-01T03:46:00+09:00,2.3,�쓌,4,��쓌,26.1,89.5,0,0,0,0
2022-08-01T03:47:00+09:00,2.4,�쓌,4,��쓌,26.1,89.5,0,0,0,0
2022-08-01T03:48:00+09:00,2.5,�쓌,4,��쓌,26.1,89.5,0,0,0,0
2022-08-01T03:49:00+09:00,2.5,�쓌,4,��쓌,26.1,89.4,0,0,0,0
2022-08-01T03:50:00+09:00,2.5,��쓌,4,��쓌,26.1,89.5,0,0,0,0
2022-08-01T03:51:00+09:00,2.4,��쓌,4,��쓌,26.2,89.6,0,0,0,0
2022-08-01T03:52:00+09:00,2.4,��쓌,4,��쓌,26.2,89.2,0,0,0,0
2022-08-01T03:53:00+09:00,2.2,��쓌,4,��쓌,26.2,88.9,0,0,0,0
2022-08-01T03:54:00+09:00,2.1,��쓌,4,��쓌,26.2,88.9,0,0,0,0
2022-08-01T03:55:00+09:00,2,��쓌,4,��쓌,26.1,88.7,0,0,0,0
2022-08-01T03:56:00+09:00,1.8,��쓌,3.5,��쓌,26.1,89,0,0,0,0
2022-08-01T03:57:00+09:00,1.9,��쓌,3.6,���쓌,26.1,89.2,0,0,0,0
2022-08-01T03:58:00+09:00,1.9,��쓌,4.2,�쓌,26.2,89.2,0,0,0,0
2022-08-01T03:59:00+09:00,1.9,��쓌,4.2,�쓌,26.2,88.8,0,0,0,0
2022-08-01T04:00:00+09:00,1.9,��쓌,4.2,�쓌,26.2,88.6,0,0,0,0
2022-08-01T04:01:00+09:00,1.9,�쓌,4.2,�쓌,26.2,88.6,0,0,0,0
2022-08-01T04:02:00+09:00,1.9,�쓌,4.2,�쓌,26.1,88.6,0,0,0,0
2022-08-01T04:03:00+09:00,2.1,�쓌,4.2,�쓌,26.1,88.8,0,0,0,0
2022-08-01T04:04:00+09:00,2.2,�쓌,4.2,�쓌,26.1,89,0,0,0,0
2022-08-01T04:05:00+09:00,2.2,�쓌,4.2,�쓌,26.1,89.2,0,0,0,0
2022-08-01T04:06:00+09:00,2.2,�쓌,4.2,�쓌,26.1,89.5,0,0,0,0
2022-08-01T04:07:00+09:00,2.2,�쓌,4.2,�쓌,26.1,89.6,0,0,0,0
2022-08-01T04:08:00+09:00,2.1,�쓌,3.9,���쓌,26.1,89.7,0,0,0,0
2022-08-01T04:09:00+09:00,2.2,�쓌,3.9,���쓌,26.1,89.6,0,0,0,0
2022-08-01T04:10:00+09:00,2.3,�쓌,5.4,�쓌,26.1,89.6,0,0,0,0
2022-08-01T04:11:00+09:00,2.3,�쓌,5.4,�쓌,26.2,89.2,0,0,0,0
2022-08-01T04:12:00+09:00,2.4,�쓌,5.4,�쓌,26.2,89,0,0,0,0
2022-08-01T04:13:00+09:00,2.3,�쓌,5.4,�쓌,26.1,89,0,0,0,0
2022-08-01T04:14:00+09:00,2.3,�쓌,5.4,�쓌,26.1,89.1,0,0,0,0
2022-08-01T04:15:00+09:00,2.3,�쓌,5.4,�쓌,26.1,89.3,0,0,0,0
2022-08-01T04:16:00+09:00,2.4,�쓌,5.4,�쓌,26.2,89.3,0,0,0,0
2022-08-01T04:17:00+09:00,2.4,�쓌,5.4,�쓌,26.1,89.2,0,0,0,0
2022-08-01T04:18:00+09:00,2.4,�쓌,5.4,�쓌,26.1,89.2,0,0,0,0
2022-08-01T04:19:00+09:00,2.3,�쓌,5.4,�쓌,26.1,89.4,0,0,0,0
2022-08-01T04:20:00+09:00,2.2,�쓌,4.1,�쓌,26.1,89.5,0,0,0,0
2022-08-01T04:21:00+09:00,2.2,�쓌,4.1,�쓌,26.2,89.3,0,0,0,0
2022-08-01T04:22:00+09:00,2.1,�쓌,4.1,�쓌,26.2,88.9,0,0,0,0
2022-08-01T04:23:00+09:00,2,�쓌,4.1,�쓌,26.2,88.7,0,0,0,0
2022-08-01T04:24:00+09:00,1.9,�쓌,4.1,�쓌,26,88.5,0,0,0,0
2022-08-01T04:25:00+09:00,1.7,�쓌,4.1,�쓌,25.8,88.7,0,0,0,0
2022-08-01T04:26:00+09:00,1.6,�쓌,3.6,���쓌,25.9,89.8,0,0,0,0
2022-08-01T04:27:00+09:00,1.5,�쓌,3.5,�쓌,26,90.2,0,0,0,0
2022-08-01T04:28:00+09:00,1.5,�쓌,3.5,�쓌,26,90.1,0,0,0,0
2022-08-01T04:29:00+09:00,1.4,��쓌,3.5,�쓌,25.9,89.8,0,0,0,0
2022-08-01T04:30:00+09:00,1.3,��쓌,3.1,�쓌,25.7,89.5,0,0,0,0
2022-08-01T04:31:00+09:00,1.1,��쓌,2.6,��,25.7,90.1,0,0,0,0
2022-08-01T04:32:00+09:00,1,��쓌,2.6,��,25.6,90.1,0,0,0,0
2022-08-01T04:33:00+09:00,0.9,��,2.6,��,25.5,90.2,0,0,0,0
2022-08-01T04:34:00+09:00,0.9,��,2.6,��,25.5,90.4,0,0,0,0
2022-08-01T04:35:00+09:00,0.8,��,2.6,��,25.4,90.3,0,0,0,0
2022-08-01T04:36:00+09:00,0.8,��,2.6,��,25.3,90.8,0,0,0,0
2022-08-01T04:37:00+09:00,0.8,��,2.6,��,25.3,91.6,0,0,0,0
2022-08-01T04:38:00+09:00,0.8,��쐼,2.1,���쓌,25.3,91.3,0,0,0,0
2022-08-01T04:39:00+09:00,0.7,��쐼,2.1,���쓌,25.1,91.4,0,0,0,0
2022-08-01T04:40:00+09:00,0.8,��쐼,2.5,��쓌,25.4,92.6,0,0,0,0
2022-08-01T04:41:00+09:00,0.8,��쐼,2.5,��쓌,25.5,92.9,0,0,0,0
2022-08-01T04:42:00+09:00,0.9,��쐼,2.5,��쓌,25.3,91.5,0,0,0,0
2022-08-01T04:43:00+09:00,1,��,2.5,��쓌,25.5,92.1,0,0,0,0
2022-08-01T04:44:00+09:00,1.2,��쐼,2.5,��쓌,25.6,92.4,0,0,0,0
2022-08-01T04:45:00+09:00,1.4,��쐼,3,��쓌,25.7,91.9,0,0,0,0
2022-08-01T04:46:00+09:00,1.6,��쐼,3.6,��,25.8,92.1,0,0,0,0
2022-08-01T04:47:00+09:00,1.7,��,4,��쓌,26,91.6,0,0,0,0
2022-08-01T04:48:00+09:00,1.9,��,4,��쓌,26.1,90.9,0,0,0,0
2022-08-01T04:49:00+09:00,2.1,��쓌,4.2,��쓌,26.2,90.2,0,0,0,0
2022-08-01T04:50:00+09:00,2.2,��쓌,4.2,��쓌,26.2,89.6,0,0,0,0
2022-08-01T04:51:00+09:00,2.3,��쓌,4.2,��쓌,26.3,89.1,0,0,0,0
2022-08-01T04:52:00+09:00,2.4,��쓌,4.2,��쓌,26.3,88.6,0,0,0,0
2022-08-01T04:53:00+09:00,2.5,��쓌,4.2,��쓌,26.2,88.3,0,0,0,0
2022-08-01T04:54:00+09:00,2.4,��쓌,4.2,��쓌,25.7,86.9,0,0,0,0
2022-08-01T04:55:00+09:00,2.4,��쓌,4.2,��쓌,25.5,87.5,0,0,0,0
2022-08-01T04:56:00+09:00,2.3,��쓌,4.2,��쓌,25.4,89,0,0,0,0
2022-08-01T04:57:00+09:00,2.1,��,4.2,��쓌,25.3,90,0,0,0,0
2022-08-01T04:58:00+09:00,2,��,4.2,��쓌,25.3,90.6,0,0,0,0
2022-08-01T04:59:00+09:00,1.7,��쐼,4,��쓌,25.2,90.8,0,0,0,0
2022-08-01T05:00:00+09:00,1.5,��쐼,3.6,��,25.4,91.8,0,0,0,0
2022-08-01T05:01:00+09:00,1.4,��쐼,3.6,��,25.5,92.3,0,0,0,0
2022-08-01T05:02:00+09:00,1.3,��쐼,3.6,��,25.7,92.3,0,0,0,0
2022-08-01T05:03:00+09:00,1.1,��쐼,2.1,�쓌,25.7,91.4,0,0,0,0
2022-08-01T05:04:00+09:00,1.1,��쐼,2.1,�쓌,25.7,90.7,0,0,0,0
2022-08-01T05:05:00+09:00,1.1,��쐼,2.1,�쓌,25.5,89.7,0,0,0,0
2022-08-01T05:06:00+09:00,1,��,2.1,�쓌,25.4,90,0,0,0,0
2022-08-01T05:07:00+09:00,0.9,��,2.1,�쓌,25.5,91.3,0,0,0,0
2022-08-01T05:08:00+09:00,0.9,��,2.1,�쓌,25.4,90.9,0,0,0,0
2022-08-01T05:09:00+09:00,0.8,��,2.1,�쓌,25.4,90.7,0,0,0,0
2022-08-01T05:10:00+09:00,0.8,��쐼,2.1,�쓌,25.4,91.2,0,0,0,0
2022-08-01T05:11:00+09:00,0.8,�쐼,2,��,25.3,91.3,0,0,0,0
2022-08-01T05:12:00+09:00,0.7,�쐼,2,��,25.2,91.2,0,0,0,0
2022-08-01T05:13:00+09:00,0.7,���쐼,1.6,��쐼,25.2,91.4,0,0,0,0
2022-08-01T05:14:00+09:00,0.6,���쐼,1.6,��쐼,25.3,92,0,0,0,0
2022-08-01T05:15:00+09:00,0.6,���쐼,1.6,��쐼,25.6,92.8,0,0,0,0
2022-08-01T05:16:00+09:00,0.6,���쐼,1.3,�쐼,25.7,92.2,0,0,0,0
2022-08-01T05:17:00+09:00,0.6,�쐼,2,��,25.8,91.5,0,0,0,0
2022-08-01T05:18:00+09:00,0.6,��쐼,2.2,���쓌,25.8,91,0,0,0,0
2022-08-01T05:19:00+09:00,0.7,��쐼,2.2,���쓌,25.4,89.2,0,0,0,0
2022-08-01T05:20:00+09:00,0.7,��,2.2,���쓌,25.3,89.4,0,0,0,0
2022-08-01T05:21:00+09:00,0.8,��쓌,2.2,���쓌,25.3,91,0,0,0,0
2022-08-01T05:22:00+09:00,0.8,��쓌,2.2,���쓌,25.3,91,0,0,0,0
2022-08-01T05:23:00+09:00,0.9,��쓌,2.2,���쓌,25.4,91.9,0,0,0,0
2022-08-01T05:24:00+09:00,1,��쓌,2.2,���쓌,25.6,91.9,0,0,0,0
2022-08-01T05:25:00+09:00,1.1,��쓌,2.2,���쓌,25.6,91.4,0,0,0,0
2022-08-01T05:26:00+09:00,1.1,��쓌,2.2,���쓌,25.6,91.2,0,0,0,0
2022-08-01T05:27:00+09:00,1.1,��쓌,2.2,���쓌,25.6,90.7,0,0,0,0
2022-08-01T05:28:00+09:00,1.1,��쓌,2.2,��쓌,25.5,90.4,0,0,0,0
2022-08-01T05:29:00+09:00,1.1,��,2.2,��쓌,25.2,89.9,0,0,0,0
2022-08-01T05:30:00+09:00,1,��,2.2,��쓌,25.1,90.4,0,0,0,0
2022-08-01T05:31:00+09:00,1.1,��,2.2,��쓌,25.3,91.8,0,0,0,0
2022-08-01T05:32:00+09:00,1.1,��,2.2,��쓌,25.6,93,0,0,0,0
2022-08-01T05:33:00+09:00,1,��,2.2,��쓌,25.6,91.6,0,0,0,0
2022-08-01T05:34:00+09:00,0.9,��,1.9,��쓌,25.7,90.9,0,0,0,0
2022-08-01T05:35:00+09:00,0.9,��,1.9,��쓌,25.7,90.5,0,0,0,0
2022-08-01T05:36:00+09:00,1,��,2.3,��쓌,25.8,90.4,0,0,0,0
2022-08-01T05:37:00+09:00,1,��,2.3,��쓌,25.9,90.1,0,0,0,0
2022-08-01T05:38:00+09:00,1,��,2.3,��쓌,26,89.6,0,0,0,0
2022-08-01T05:39:00+09:00,1.1,��쓌,3,��쓌,26,89.1,0,0,0,0
2022-08-01T05:40:00+09:00,1.2,��쓌,3,��쓌,26.1,88.9,0,0,0,0
2022-08-01T05:41:00+09:00,1.2,��쓌,3,��쓌,26.1,88.5,0,0,0,0
2022-08-01T05:42:00+09:00,1.2,��쓌,4,�쓌,26.1,88.4,0,0,0,0
2022-08-01T05:43:00+09:00,1.4,��쓌,4.3,��쓌,26.1,88.3,0,0,0,0
2022-08-01T05:44:00+09:00,1.5,��쓌,4.3,��쓌,26.2,88.1,0,0,0,0
2022-08-01T05:45:00+09:00,1.5,��쓌,4.3,��쓌,26.2,87.9,0,0,0,0
2022-08-01T05:46:00+09:00,1.4,��쓌,4.3,��쓌,26.2,87.8,0,0,0,0
2022-08-01T05:47:00+09:00,1.4,��쓌,4.3,��쓌,26.1,87.7,0,0,0,0
2022-08-01T05:48:00+09:00,1.3,��쓌,4.3,��쓌,26.1,87.7,0,0,0,0
2022-08-01T05:49:00+09:00,1.2,��쓌,4.3,��쓌,26.2,87.9,0,0,0,0
2022-08-01T05:50:00+09:00,1.1,��쓌,4.3,��쓌,26.1,87.6,0,0,0,0
2022-08-01T05:51:00+09:00,1,��쓌,4.3,��쓌,26.1,87.7,0,0,0,0
2022-08-01T05:52:00+09:00,1,��,4.3,��쓌,26.2,87.9,0,0,0,0
2022-08-01T05:53:00+09:00,0.9,��,2.6,�쓌,25.9,87.4,0,0,0,0
2022-08-01T05:54:00+09:00,0.8,��쐼,2.5,�쓌,25.7,87.4,0,0,0,0
2022-08-01T05:55:00+09:00,0.8,�쐼,2.3,�쓌,25.6,88,0,0,0,0
2022-08-01T05:56:00+09:00,0.7,�쐼,2.3,�쓌,25.7,89.2,0,0,0,0
2022-08-01T05:57:00+09:00,0.7,���쐼,2.3,�쓌,25.8,89.7,0,0,0,0
2022-08-01T05:58:00+09:00,0.8,���쐼,2.3,�쓌,25.9,89.7,0,0,0,0
2022-08-01T05:59:00+09:00,0.8,��,2.3,�쓌,26,89.2,0,0,0,0
2022-08-01T06:00:00+09:00,0.8,���k��,2.3,�쓌,26.1,88.9,0,0,0,0
2022-08-01T06:01:00+09:00,0.7,���k��,1.8,���쐼,26.2,88.7,0,0,0,0
2022-08-01T06:02:00+09:00,0.6,�k��,1.8,���쐼,26.2,88.4,0,0,0,0
2022-08-01T06:03:00+09:00,0.7,�k�k��,2.4,���쓌,26.3,88.4,0,0,0,0
2022-08-01T06:04:00+09:00,0.7,�k��,2.4,���쓌,26.4,88,0,0,0,0
2022-08-01T06:05:00+09:00,0.7,��,2.4,���쓌,26.6,87.5,0,0,0,0
2022-08-01T06:06:00+09:00,1,��,4.5,��쓌,26.6,86.8,0,0,0,0
2022-08-01T06:07:00+09:00,1.2,���쓌,5,��쓌,26.7,86,0,0,0,0
2022-08-01T06:08:00+09:00,1.4,���쓌,5,��쓌,26.8,85.5,0,0,0,0
2022-08-01T06:09:00+09:00,1.6,�쓌,5,��쓌,26.8,85.1,0,0,0,0
2022-08-01T06:10:00+09:00,1.9,�쓌,5.3,�쓌,26.9,84.8,0,0,0,0
2022-08-01T06:11:00+09:00,2.1,�쓌,5.3,�쓌,26.9,84.5,0,0,0,0
2022-08-01T06:12:00+09:00,2.2,�쓌,5.3,�쓌,26.8,84.5,0,0,0,0
2022-08-01T06:13:00+09:00,2.3,�쓌,5.3,�쓌,26.8,84.5,0,0,0,0
2022-08-01T06:14:00+09:00,2.5,�쓌,5.3,�쓌,26.9,84.2,0,0,0,0
2022-08-01T06:15:00+09:00,2.6,�쓌,5.3,�쓌,27,83.7,0,0,0,0
2022-08-01T06:16:00+09:00,2.5,�쓌,5.3,�쓌,27,83.5,0,0,0,0
2022-08-01T06:17:00+09:00,2.3,�쓌,5.3,�쓌,27,83.6,0,0,0,0
2022-08-01T06:18:00+09:00,2.2,�쓌,5.3,�쓌,27,83.7,0,0,0,0
2022-08-01T06:19:00+09:00,2.2,�쓌,5.3,�쓌,27,84,0,0,0,0
2022-08-01T06:20:00+09:00,2.1,�쓌,5.2,�쓌,26.9,84.2,0,0,0,0
2022-08-01T06:21:00+09:00,2.3,�쓌,7,��쓌,26.9,84.5,0,0,0,0
2022-08-01T06:22:00+09:00,2.7,�쓌,8.7,�쓌,27,83.8,0,0,0,0
2022-08-01T06:23:00+09:00,2.9,�쓌,8.7,�쓌,27.1,83.2,0,0,0,0
2022-08-01T06:24:00+09:00,2.9,�쓌,8.7,�쓌,27.1,83.1,0,0,0,0
2022-08-01T06:25:00+09:00,2.9,�쓌,8.7,�쓌,27.1,83,0,0,0,0
2022-08-01T06:26:00+09:00,3,�쓌,8.7,�쓌,27.1,83.2,0,0,0,0
2022-08-01T06:27:00+09:00,3.1,�쓌,8.7,�쓌,27.1,83.4,0,0,0,0
2022-08-01T06:28:00+09:00,3.1,�쓌,8.7,�쓌,27.1,83.6,0,0,0,0
2022-08-01T06:29:00+09:00,3.3,�쓌,8.7,�쓌,27.1,83.4,0,0,0,0
2022-08-01T06:30:00+09:00,3.5,�쓌,8.7,�쓌,27.2,82.7,0,0,0,0
2022-08-01T06:31:00+09:00,3.6,�쓌,8.7,�쓌,27.3,81.9,0,0,0,0
2022-08-01T06:32:00+09:00,3.4,�쓌,7,�쓌,27.3,81.7,0,0,0,0
2022-08-01T06:33:00+09:00,3.3,�쓌,7,�쓌,27.3,81.7,0,0,0,0
2022-08-01T06:34:00+09:00,3.3,�쓌,7,�쓌,27.2,82.1,0,0,0,0
2022-08-01T06:35:00+09:00,3.3,�쓌,7,�쓌,27.1,82.9,0,0,0,0
2022-08-01T06:36:00+09:00,3.3,�쓌,7,�쓌,27,83.7,0,0,0,0
2022-08-01T06:37:00+09:00,3.3,�쓌,7,�쓌,27,84.1,0,0,0,0
2022-08-01T06:38:00+09:00,3.4,�쓌,7,�쓌,27.1,84.3,0,0,0,0
2022-08-01T06:39:00+09:00,3.5,�쓌,7,�쓌,27.1,84,0,0,0,0
2022-08-01T06:40:00+09:00,3.4,�쓌,7,�쓌,27.2,83.2,0,0,0,0
2022-08-01T06:41:00+09:00,3.2,�쓌,7,�쓌,27,83.6,0,0,0,0
2022-08-01T06:42:00+09:00,3.1,�쓌,7,�쓌,27,84.3,0,0,0,0
2022-08-01T06:43:00+09:00,2.9,�쓌,7,�쓌,27,84.7,0,0,0,0
2022-08-01T06:44:00+09:00,2.9,�쓌,7,�쓌,26.9,85,0,0,0,0
2022-08-01T06:45:00+09:00,2.9,�쓌,7,�쓌,27,85.2,0,0,0,0
2022-08-01T06:46:00+09:00,2.8,�쓌,7,�쓌,27,85.3,0,0,0,0
2022-08-01T06:47:00+09:00,2.8,�쓌,7,�쓌,27.1,85.1,0,0,0,0
2022-08-01T06:48:00+09:00,2.7,�쓌,7,�쓌,27.1,84.9,0,0,0,0
2022-08-01T06:49:00+09:00,2.4,�쓌,4.8,���쓌,27,85.1,0,0,0,0